sat.trackr.live / text

‹ back to catalog

STARLINK-36151

NORAD 67123 · 2025-299X

PAYLOAD ACTIVE UNKNOWN

§ Identity

Operator
Country
US
Launch date
2025-12-15
Launch site
AFETR
Launch vehicle
Mass (kg)
RCS (m²)

Purposes: comms

External: N2YO · Heavens-Above · Gunter

§ Orbital elements

Epoch: 2026-05-25T03:52:05.585664Z

Period
94.27 min
Inclination
43.0000°
Eccentricity
0.0000677
Mean motion
15.27581611 rev/d
Perigee alt
482.6 km
Apogee alt
483.5 km
Semi-major
6,861.2 km
B*
5.3899e-4
RAAN
96.9388°
Arg perigee
263.0885°
Mean anomaly
96.9890°
Rev number
2,481

§ Raw data

STARLINK-361511 67123U 25299X   26145.16117576  .00014600  00000+0  53899-3 0  99952 67123  43.0000  96.9388 0000677 263.0885  96.9890 15.27581611 24816

JSON: /api/v1/satellites/67123 · /tle

For live sub-satellite position, see the globe view (requires WebGL).

§ Visibility from observer

Set your observer location to see the next 7 days of passes ≥ 10°. The values pass through the URL so the page stays shareable.

No JS? Fill the form by hand. The geolocation button needs JavaScript.